Station KNSW3 - Kenosha Light, Kenosha, WI Image indicating link to RSS feed of recent meteorological observations for station KNSW3


Conditions at KNSW3 as of
(2:00 pm CDT)
1900 GMT on 06/22/2024:
     

Click on the graph icon in the table below to see a time series plot of the last five days of that observation.

5-day plot - Wind Direction Wind Direction (WDIR):SSW ( 210 deg true )
5-day plot - Wind Speed Wind Speed (WSPD): 5 kts
5-day plot - Wind Gust Wind Gust (GST): 9 kts
5-day plot - Atmospheric Pressure Atmospheric Pressure (PRES):29.82 in
5-day plot - Pressure Tendency Pressure Tendency (PTDY):-0.06 in ( Falling )
5-day plot - Air Temperature Air Temperature (ATMP): 81.7 °F
5-day plot - Wind Speed at 10 Meters Wind Speed at 10 meters (WSPD10M): 6 kts
5-day plot - Wind Speed at 20 Meters Wind Speed at 20 meters (WSPD20M): 6 kts
5-day plot -  Wind Speed, Wind Gust and Atmospheric Pressure Combined plot of Wind Speed, Gust, and Air Pressure
Previous observations
TIME
(CDT)
5-day plot - Wind Direction
WDIR
 
5-day plot - Wind Speed
WSPD
kts
5-day plot - Wind Gust
GST
kts
5-day plot - Wave Height
WVHT
ft
5-day plot - Dominant Wave Period
DPD
sec
5-day plot - Average Wave Period
APD
sec
5-day plot - Mean Wave Direction
MWD
 
5-day plot - Atmospheric Pressure
PRES
in
5-day plot - Pressure Tendency
PTDY
in
5-day plot - Air Temperature
ATMP
°F
5-day plot - Water Temperature
WTMP
°F
5-day plot - Dew Point
DEWP
°F
5-day plot - Salinity
SAL
psu
5-day plot - Visibility
VIS
nmi
5-day plot - Tide (above MLLW)
TIDE
ft
2024-06-22 01:50 pmSSW 4 8----29.82- 81.0-----
2024-06-22 01:40 pmSSW 4 9----29.83- 80.8-----
2024-06-22 01:30 pmWSW 7 10----29.84- 81.0-----
2024-06-22 01:20 pmWSW 6 9----29.84- 81.3-----
2024-06-22 01:10 pmWSW 7 12----29.84- 82.0-----
2024-06-22 01:00 pm SW 5 8----29.85-0.04 82.9-----
2024-06-22 12:50 pm SW 6 9----29.85- 83.3-----
2024-06-22 12:40 pm SW 5 9----29.85- 83.1-----
2024-06-22 12:30 pm SW 4 8----29.86- 83.5-----
2024-06-22 12:20 pm SW 7 10----29.86- 83.5-----
2024-06-22 12:10 pm SW 6 10----29.86- 83.3-----
2024-06-22 12:00 pmSSW 4 7----29.86-0.06 82.8-----
2024-06-22 11:50 amSSW 4 10----29.86- 82.6-----
2024-06-22 11:40 amSSW 9 11----29.86- 82.8-----
2024-06-22 11:30 amSSW 6 10----29.87- 82.8-----
2024-06-22 11:20 amSSW 6 12----29.87- 82.4-----
2024-06-22 11:10 amSSW 5 10----29.87- 81.9-----
2024-06-22 11:00 amSSW 6 10----29.88-0.07 81.1-----
2024-06-22 10:50 amSSW 4 9----29.88- 80.8-----
2024-06-22 10:40 am S 6 10----29.88- 80.2-----
2024-06-22 10:30 amSSW 5 8----29.88- 78.8-----
2024-06-22 10:20 am S 4 6----29.88- 71.1-----
2024-06-22 10:10 am S 6 7----29.88- 66.9-----
2024-06-22 10:00 am S 6 8----29.89-0.07 66.4-----
2024-06-22 09:50 amSSE 7 7----29.90- 65.5-----
2024-06-22 09:40 amSSE 6 7----29.90- 65.7-----
2024-06-22 09:30 amSSE 5 6----29.90- 65.8-----
2024-06-22 09:20 am S 4 7----29.91- 65.7-----
2024-06-22 09:10 amSSE 6 8----29.91- 65.5-----
2024-06-22 09:00 amSSE 6 8----29.92-0.06 65.3-----
2024-06-22 08:50 amSSE 6 8----29.92- 64.8-----
2024-06-22 08:40 amSSE 7 8----29.93- 65.1-----
2024-06-22 08:30 amSSE 6 7----29.94- 64.6-----
2024-06-22 08:20 amSSE 6 7----29.94- 64.8-----
2024-06-22 08:10 amSSE 6 6----29.95- 64.4-----
2024-06-22 08:00 amSSE 5 6----29.95-0.04 64.4-----
2024-06-22 07:50 amSSE 5 6----29.95- 64.4-----
2024-06-22 07:40 amSSE 6 6----29.95- 64.2-----
2024-06-22 07:30 amSSE 6 6----29.96- 64.4-----
2024-06-22 07:20 amSSE 5 6----29.96- 64.0-----
2024-06-22 07:10 amSSE 6 6----29.96- 64.0-----
2024-06-22 07:00 amSSE 5 6----29.96-0.04 64.0-----
2024-06-22 06:50 amSSE 5 6----29.96- 64.0-----
2024-06-22 06:40 am SE 4 4----29.97- 64.0-----
2024-06-22 06:30 amESE 2 3----29.98- 64.2-----
2024-06-22 06:20 am E 1 1----29.98- 64.4-----
2024-06-22 06:10 am- 0 1----29.98- 64.4-----
2024-06-22 06:00 am- 0 2----29.98-0.05 64.2-----
2024-06-22 05:50 am- 0 1----29.99- 64.0-----
2024-06-22 05:40 am- 0 2----29.99- 63.7-----
2024-06-22 05:30 am N 2 2----29.99- 63.3-----
2024-06-22 05:20 amNNE 2 4----29.99- 63.9-----
2024-06-22 05:10 amNNE 3 4----29.99- 63.9-----
2024-06-22 05:00 amNNE 3 5----29.99-0.07 64.6-----
2024-06-22 04:50 am N 5 6----29.99- 64.8-----
2024-06-22 04:40 am N 5 6----30.00- 64.9-----
2024-06-22 04:30 amNNW 3 4----30.00- 64.8-----
2024-06-22 04:20 amNNW 2 3----30.00- 66.0-----
2024-06-22 04:10 am- 0 2----30.00- 65.8-----
2024-06-22 04:00 amSSW 2 4----30.00-0.05 65.5-----
2024-06-22 03:50 am S 3 4----30.00- 63.9-----
2024-06-22 03:40 amSSE 4 6----30.00- 63.1-----
2024-06-22 03:30 am SE 5 6----30.01- 63.9-----
2024-06-22 03:20 amSSE 4 5----30.01- 64.8-----
2024-06-22 03:10 am S 2 3----30.02- 64.2-----
2024-06-22 03:00 am S 2 4----30.03-0.04 64.2-----
2024-06-22 02:50 am S 3 3----30.03- 63.9-----
2024-06-22 02:40 amESE 1 2----30.03- 64.6-----
2024-06-22 02:30 am- 0 2----30.03- 64.9-----
2024-06-22 02:20 am SW 2 4----30.04- 64.9-----
2024-06-22 02:10 amWSW 3 6----30.05- 64.8-----
2024-06-22 02:00 am W 5 8----30.06-0.01 64.0-----
2024-06-22 01:50 am W 6 9----30.05- 62.8-----
2024-06-22 01:40 am NW 2 2----30.04- 61.9-----
2024-06-22 01:30 am- 0 1----30.04- 61.7-----
2024-06-22 01:20 am- 0 1----30.04- 61.7-----
2024-06-22 01:10 am N 1 2----30.05- 61.5-----
2024-06-22 01:00 am N 2 2----30.05-0.03 61.3-----
2024-06-22 12:50 am N 2 3----30.05- 61.2-----
2024-06-22 12:40 am N 3 4----30.05- 61.0-----
2024-06-22 12:30 am N 4 5----30.05- 61.0-----
2024-06-22 12:20 am N 5 6----30.05- 60.8-----
2024-06-22 12:10 am N 6 7----30.06- 61.2-----
2024-06-22 12:00 am N 6 7----30.07+0.00 61.2-----
2024-06-21 11:50 pm N 6 6----30.07- 61.2-----
2024-06-21 11:40 pm N 6 6----30.07- 61.3-----
2024-06-21 11:30 pm N 5 5----30.07- 61.2-----
2024-06-21 11:20 pm N 5 6----30.07- 61.2-----
2024-06-21 11:10 pm N 6 7----30.08- 61.3-----
2024-06-21 11:00 pm N 7 8----30.07+0.00 61.3-----
2024-06-21 10:50 pm N 8 9----30.08- 61.2-----
2024-06-21 10:40 pm N 8 9----30.07- 61.3-----
2024-06-21 10:30 pm N 9 9----30.07- 61.9-----
2024-06-21 10:20 pm N 8 9----30.08- 61.5-----
2024-06-21 10:10 pm N 9 9----30.08- 61.7-----
2024-06-21 10:00 pm N 8 8----30.08+0.00 61.7-----
2024-06-21 09:50 pm N 6 6----30.08- 61.5-----
2024-06-21 09:40 pm N 5 6----30.08- 61.5-----
2024-06-21 09:30 pm N 5 6----30.08- 61.3-----
2024-06-21 09:20 pm N 5 6----30.07- 61.2-----
2024-06-21 09:10 pm N 5 7----30.07- 61.5-----
2024-06-21 09:00 pm N 7 7----30.07+0.01 61.5-----
2024-06-21 08:50 pm N 7 7----30.07- 61.5-----
2024-06-21 08:40 pm N 7 7----30.06- 61.7-----
2024-06-21 08:30 pm N 6 8----30.06- 61.5-----
2024-06-21 08:20 pm N 8 8----30.07- 61.9-----
2024-06-21 08:10 pm N 7 8----30.07- 61.7-----
2024-06-21 08:00 pm N 8 9----30.07-0.02 61.7-----
2024-06-21 07:50 pm N 8 9----30.07- 61.5-----
2024-06-21 07:40 pm N 9 10----30.08- 61.3-----
2024-06-21 07:30 pm N 9 10----30.08- 61.3-----
2024-06-21 07:20 pm N 9 10----30.08- 61.3-----
2024-06-21 07:10 pm N 9 10----30.08- 61.5-----
2024-06-21 07:00 pm N 10 11----30.08- 61.7-----
2024-06-21 06:50 pm N 10 11----30.08- 62.1-----
2024-06-21 06:40 pm N 10 11----30.07- 62.4-----
2024-06-21 06:30 pm N 9 11----30.07- 63.0-----
2024-06-21 06:20 pm N 9 9----30.08- 63.3-----
2024-06-21 06:10 pm N 8 9----30.07- 64.2-----
2024-06-21 06:00 pm N 7 8----30.06-0.05 64.9-----
2024-06-21 05:50 pm N 7 7----30.07- 65.1-----
2024-06-21 05:40 pm N 5 7----30.07- 65.8-----
2024-06-21 05:30 pmNNE 6 7----30.08- 66.4-----
2024-06-21 05:20 pmNNE 5 5----30.08- 66.6-----
2024-06-21 05:10 pmNNE 4 4----30.08- 66.7-----
2024-06-21 05:00 pm N 4 5----30.09-0.05 66.7-----
2024-06-21 04:50 pm NE 2 3----30.08- 67.6-----
2024-06-21 04:40 pm NE 3 3----30.08- 67.6-----
2024-06-21 04:30 pm E 2 2----30.08- 70.3-----
2024-06-21 04:20 pmENE 2 3----30.09- 67.6-----
2024-06-21 04:10 pm SE 3 3----30.09- 71.1-----
2024-06-21 04:00 pm SE 3 3----30.09-0.08 71.6-----
2024-06-21 03:50 pm E 2 2----30.10- 70.2-----
2024-06-21 03:40 pm E 2 3----30.10- 68.7-----
2024-06-21 03:30 pm SE 3 4----30.10- 70.3-----
2024-06-21 03:20 pmESE 4 4----30.10- 70.0-----
2024-06-21 03:10 pm SE 4 5----30.11- 68.7-----
2024-06-21 03:00 pm SE 5 5----30.11- 68.2-----
2024-06-21 02:50 pm SE 5 5----30.12- 68.4-----